• Join FlightAware (Why Join?)
  • Login
  • US Flag 
09:53PM EDT


 

Airport Tracker/Info


-or-


 

Live Flight TrackerFlight Track Log ✈ UCA596 ✈ 03-Nov-2013 ✈ KIAD - KBGM

Flight Track Log - Related Links

Times and Time Zones

All times are in EST time to prevent confusion due to time zone crossing. See the UCA596 flight status page for this flight to view local times or setup timezone preferences in your user account.

Time Position Orientation Groundspeed Altitude Reporting Facility
EST Latitude Longitude Course Direction KTS MPH feet Rate Location/Type
01:10PM 38.9667 -77.5000 North 134 154 2,100  Level Potomac TRACON
01:11PM 39.0000 -77.5167 339° North 159 183 3,600 1,500 Climbing Potomac TRACON
01:14PM 39.0994 -77.5681 338° Northwest 158 182 7,400 1,440 Climbing Washington Center
01:15PM 39.1494 -77.5642 North 158 182 8,800 1,320 Climbing Washington Center
01:16PM 39.3292 -77.2943 North  Level Estimated
01:16PM 39.2017 -77.5656 359° North 163 188 10,100  Level Washington Center
01:17PM 39.2456 -77.5506 15° North 168 193 12,000 1,440 Climbing Washington Center
01:18PM 39.3000 -77.5386 10° North 178 205 13,000 2,280 Climbing Washington Center
01:20PM 39.4119 -77.5136 10° North 195 224 19,000 1,320 Climbing New York Center
01:21PM 39.4669 -77.5000 11° North 200 230 17,200 -300 Descending New York Center
01:22PM 39.5111 -77.4908 North 186 214 18,500 900 Climbing New York Center
01:23PM 39.5514 -77.4811 11° North 159 183 19,000 240 Climbing New York Center
01:24PM 39.6086 -77.4650 12° North 168 193 19,000  Level New York Center
01:25PM 39.6656 -77.4542 North 192 221 19,000  Level New York Center
01:26PM 39.7219 -77.4542 360° North 198 228 19,000  Level New York Center
01:27PM 39.7781 -77.4542 360° North 203 234 19,000 -180 Level New York Center
01:28PM 39.8344 -77.4542 360° North 198 228 18,700 -600 Descending New York Center
01:29PM 39.8950 -77.4517 North 214 246 17,800 -660 Descending New York Center
01:30PM 39.9597 -77.4500 North 220 253 17,400 -660 Descending New York Center
01:31PM 40.0264 -77.4508 359° North 237 273 16,500 -900 Descending New York Center
01:32PM 40.0983 -77.4333 11° North 244 281 15,700 -780 Descending New York Center
01:33PM 40.1700 -77.3858 27° Northeast 272 313 15,000 -360 Descending New York Center
01:34PM 40.2389 -77.3433 25° Northeast 278 320 15,000  Level New York Center
01:35PM 40.3061 -77.3008 26° Northeast 267 307 15,000  Level New York Center
01:36PM 40.3728 -77.2633 23° Northeast 262 302 15,000  Level New York Center
01:37PM 40.4397 -77.2206 26° Northeast 262 302 15,000  Level New York Center
01:38PM 40.5022 -77.1828 25° Northeast 257 296 15,000  Level New York Center
01:39PM 40.5625 -77.1475 24° Northeast 257 296 15,000  Level New York Center
01:40PM 40.6317 -77.1019 27° Northeast 257 296 15,000  Level New York Center
01:41PM 40.6919 -77.0664 24° Northeast 257 296 15,000  Level New York Center
01:42PM 40.7564 -77.0256 26° Northeast 257 296 15,000  Level New York Center
01:43PM 40.8211 -76.9878 24° Northeast 257 296 15,000  Level New York Center
01:44PM 40.8919 -76.9447 25° Northeast 257 296 15,000  Level New York Center
01:45PM 40.9483 -76.9058 28° Northeast 252 290 15,000  Level New York Center
01:46PM 41.0128 -76.8678 24° Northeast 252 290 15,000  Level New York Center
01:47PM 41.0772 -76.8267 26° Northeast 252 290 15,000  Level New York Center
01:48PM 41.1419 -76.7856 26° Northeast 247 284 15,000  Level New York Center
01:49PM 41.2044 -76.7469 25° Northeast 247 284 15,000  Level New York Center
01:50PM 41.2708 -76.7061 25° Northeast 247 284 15,000  Level New York Center
01:51PM 41.3419 -76.6597 26° Northeast 247 284 15,000  Level New York Center
01:52PM 41.4000 -76.6233 25° Northeast 247 284 15,000  Level New York Center
01:53PM 41.4647 -76.5819 26° Northeast 247 284 15,000  Level New York Center
01:54PM 41.5356 -76.5381 25° Northeast 247 284 15,000  Level New York Center
01:55PM 41.6019 -76.4967 25° Northeast 247 284 15,000 -600 Level New York Center
01:56PM 41.6686 -76.4525 26° Northeast 253 291 13,800 -1,380 Descending New York Center
01:57PM 41.7333 -76.4078 27° Northeast 272 313 12,300 -1,500 Descending New York Center
01:58PM 41.8039 -76.3667 23° Northeast 277 319 10,800 -1,560 Descending New York Center
01:59PM 41.8792 -76.3172 26° Northeast 272 313 9,200 -1,560 Descending New York Center
02:00PM 41.9436 -76.2750 26° Northeast 261 300 7,700 -1,620 Descending New York Center
02:01PM 41.9983 -76.2156 39° Northeast 250 288 6,000 -1,920 Descending New York Center
02:02PM 42.0406 -76.1603 44° Northeast 242 278 3,900 -1,200 Descending New York Center
02:03PM 42.0850 -76.0942 48° Northeast 232 267 3,600 -180 Descending New York Center
02:04PM 42.1169 -76.0353 54° Northeast 213 245 3,600 -180 Level New York Center
02:05PM 42.1397 -75.9894 56° Northeast 177 204 3,300 -540 Descending New York Center
02:06PM 42.1683 -75.9553 42° Northeast 147 169 2,600 -540 Descending New York Center
02:07PM 42.1933 -75.9517 North 108 124 2,300 6,180 Descending New York Center
02:08PM 42.2214 -75.9317 28° Northeast 108 124 15,000 6,300 Climbing New York Center
02:09PM 42.2469 -75.9139 27° Northeast 108 124 15,000  Level New York Center
02:11PM 42.2000 -75.9667 236° Southwest  Level FlightAware Approximate